VIASAT-2

Last updated on Jan. 24, 2020, 4:41 a.m. UTC

1 42740U 17029A   20023.52660457 -.00000273  00000-0  00000+0 0  9990
2 42740   0.0114 344.9537 0000261 110.2021 146.7984  1.00268527  9757
UTC
Height (km)
Latitude
Longitude
Inclination
Orbital Period
UTC large
Height (km)
Speed (km/s)
/
Latitude / Longitude
Inclination (degrees)
Orbital Period (minutes)
Azimuth
Elevation
Range (km)
Doppler Factor
iOS Compass Heading
iOS Angle

Next 30 passes for location: Hong Kong

Rise time Rise Azimuth (degrees) Set time Set Azimuth (degrees) Duration Max altitude (degrees)

No matching passes for this satellites